START_TIME,STEP,MOV.,M29,t_acc.,H22,t_acc.,H26,t_acc.,H30,t_acc.
1981-08-24 06:06:32.980 ,0,0,0.,24.0,0.,24.0,0.,24.0,0.,24.0
1981-08-24 06:06:56.980 ,6,1,0.,24.0,0.,24.0,0.,24.0,0.,24.0
1981-08-24 06:07:20.980 ,5,1,0.,24.0,0.,24.0,0.,24.0,0.,24.0
1981-08-24 06:07:44.980 ,4,1,0.,24.0,0.,24.0,0.,24.0,0.,24.0
1981-08-24 06:08:08.980 ,3,1,0.,24.0,0.,24.0,0.,24.0,0.,24.0
1981-08-24 06:08:32.980 ,2,1,0.,24.0,0.,24.0,0.,24.0,0.,24.0
1981-08-24 06:08:56.980 ,1,1,0.,24.0,0.,24.0,0.,24.0,0.,24.0
1981-08-24 06:09:20.980 ,0,1,0.,24.0,0.,24.0,0.,24.0,0.,24.0
1981-08-24 06:09:44.980 ,0,1,0.,24.0,0.,24.0,0.,24.0,0.,24.0
1981-08-24 06:10:08.980 ,1,1,0.,24.0,0.,24.0,0.,24.0,0.,24.0
1981-08-24 06:10:32.980 ,2,1,0.,24.0,0.,24.0,0.,24.0,0.,24.0
1981-08-24 06:10:56.980 ,0,0,0.,24.0,0.,24.0,0.,24.0,0.,24.0
1981-08-24 06:15:43.180 ,0,0,,0,,0,,0,,0
1981-08-24 06:15:44.980 ,0,0,0.,24.0,0.,24.0,0.,24.0,0.,24.0
1981-08-24 06:16:08.980 ,3,1,0.,24.0,0.,24.0,0.,24.0,0.,24.0
1981-08-24 06:16:32.980 ,0,0,0.,24.0,0.,24.0,0.,24.0,0.,24.0
1981-08-24 06:30:32.970 ,4,1,0.,24.0,0.,24.0,0.,24.0,0.,24.0
1981-08-24 06:30:56.970 ,5,1,0.,24.0,0.,24.0,0.,24.0,0.,24.0
1981-08-24 06:31:20.970 ,6,1,0.,24.0,0.,24.0,0.,24.0,0.,24.0
1981-08-24 06:31:44.970 ,7,1,0.,24.0,0.,24.0,0.,24.0,0.,24.0
1981-08-24 06:32:08.970 ,7,1,0.,24.0,0.,24.0,0.,24.0,0.,24.0
1981-08-24 06:32:32.970 ,7,0,0.,24.0,0.,24.0,0.,24.0,0.,24.0
1981-08-24 06:32:56.970 ,6,1,0.,24.0,0.,24.0,0.,24.0,0.,24.0
1981-08-24 06:33:20.970 ,6,0,0.,24.0,0.,24.0,0.,24.0,0.,24.0
1981-08-24 06:33:44.970 ,5,1,0.,24.0,0.,24.0,0.,24.0,0.,24.0
1981-08-24 06:34:08.970 ,5,0,0.,24.0,0.,24.0,0.,24.0,0.,24.0
1981-08-24 06:34:32.970 ,4,1,0.,24.0,0.,24.0,0.,24.0,0.,24.0
1981-08-24 06:34:56.970 ,4,0,0.,24.0,0.,24.0,0.,24.0,0.,24.0
1981-08-24 06:35:20.970 ,3,1,0.,24.0,0.,24.0,0.,24.0,0.,24.0
1981-08-24 06:35:44.970 ,3,0,0.,24.0,0.,24.0,0.,24.0,0.,24.0
1981-08-24 06:36:08.970 ,2,1,0.,24.0,0.,24.0,0.,24.0,0.,24.0
1981-08-24 06:36:32.970 ,2,0,0.,24.0,0.,24.0,0.,24.0,0.,24.0
1981-08-24 06:36:56.970 ,1,1,0.,24.0,0.,24.0,0.,24.0,0.,24.0
1981-08-24 06:37:20.970 ,1,0,0.,24.0,0.,24.0,0.,24.0,0.,24.0
1981-08-24 06:37:44.970 ,0,1,0.,24.0,0.,24.0,0.,24.0,0.,24.0
1981-08-24 06:38:08.970 ,0,0,0.,24.0,0.,24.0,0.,24.0,0.,24.0
1981-08-24 06:38:32.970 ,0,1,0.,24.0,0.,24.0,0.,24.0,0.,24.0
1981-08-24 06:38:56.970 ,0,0,0.,24.0,0.,24.0,0.,24.0,0.,24.0
1981-08-24 06:39:20.970 ,1,1,0.,24.0,0.,24.0,0.,24.0,0.,24.0
1981-08-24 06:39:44.970 ,1,0,0.,24.0,0.,24.0,0.,24.0,0.,24.0
1981-08-24 06:40:08.970 ,2,1,0.,24.0,0.,24.0,0.,24.0,0.,24.0
1981-08-24 06:40:32.970 ,2,0,0.,24.0,0.,24.0,0.,24.0,0.,24.0
1981-08-24 06:40:56.970 ,3,1,0.,24.0,0.,24.0,0.,24.0,0.,24.0
1981-08-24 06:41:20.970 ,3,0,0.,24.0,0.,24.0,0.,24.0,0.,24.0
1981-08-24 06:41:44.970 ,4,1,0.,24.0,0.,24.0,0.,24.0,0.,24.0
1981-08-24 06:42:08.970 ,0,0,0.,24.0,0.,24.0,0.,24.0,0.,24.0
1981-08-24 06:42:37.170 ,0,0,0.,24.0,0.,24.0,0.,24.0,0.,24.0
1981-08-24 06:42:56.970 ,0,0,0.,24.0,0.,24.0,0.,24.0,0.,24.0
1981-08-24 06:43:20.970 ,6,1,0.,24.0,0.,24.0,0.,24.0,0.,24.0
1981-08-24 06:43:44.970 ,6,0,0.,24.0,0.,24.0,0.,24.0,0.,24.0
1981-08-24 06:44:08.970 ,7,1,0.,24.0,0.,24.0,0.,24.0,0.,24.0
1981-08-24 06:44:32.970 ,7,0,0.,24.0,0.,24.0,0.,24.0,0.,24.0
1981-08-24 06:44:56.970 ,7,1,0.,24.0,0.,24.0,0.,24.0,0.,24.0
1981-08-24 06:45:20.970 ,6,1,0.,24.0,0.,24.0,0.,24.0,0.,24.0
1981-08-24 06:45:44.970 ,5,1,0.,24.0,0.,24.0,0.,24.0,0.,24.0
1981-08-24 06:46:08.970 ,4,1,0.,24.0,0.,24.0,0.,24.0,0.,24.0
1981-08-24 06:46:32.970 ,3,1,0.,24.0,0.,24.0,0.,24.0,0.,24.0
1981-08-24 06:46:56.970 ,2,1,0.,24.0,0.,24.0,0.,24.0,0.,24.0
1981-08-24 06:47:20.970 ,1,1,0.,24.0,0.,24.0,0.,24.0,0.,24.0
1981-08-24 06:47:44.970 ,0,1,0.,24.0,0.,24.0,0.,24.0,0.,24.0
1981-08-24 06:48:08.970 ,0,1,0.,24.0,0.,24.0,0.,24.0,0.,24.0
1981-08-24 06:48:32.970 ,1,1,0.,24.0,0.,24.0,0.,24.0,0.,24.0
1981-08-24 06:48:56.970 ,2,1,0.,24.0,0.,24.0,0.,24.0,0.,24.0
1981-08-24 06:49:20.970 ,3,1,0.,24.0,0.,24.0,0.,24.0,0.,24.0
1981-08-24 06:49:44.970 ,4,1,0.,24.0,0.,24.0,0.,24.0,0.,24.0
1981-08-24 06:50:08.970 ,5,1,0.,24.0,0.,24.0,0.,24.0,0.,24.0
1981-08-24 06:50:32.970 ,6,1,0.,24.0,0.,24.0,0.,24.0,0.,24.0
1981-08-24 06:50:56.970 ,7,1,0.,24.0,0.,24.0,0.,24.0,0.,24.0
1981-08-24 06:51:20.970 ,7,1,0.,24.0,0.,24.0,0.,24.0,0.,24.0
1981-08-24 06:51:44.970 ,7,0,0.,24.0,0.,24.0,0.,24.0,0.,24.0
1981-08-24 06:52:08.970 ,6,1,0.,24.0,0.,24.0,0.,24.0,0.,24.0
1981-08-24 06:52:32.970 ,6,0,0.,24.0,0.,24.0,0.,24.0,0.,24.0
1981-08-24 06:52:56.970 ,5,1,0.,24.0,0.,24.0,0.,24.0,0.,24.0
1981-08-24 06:53:20.970 ,5,0,0.,24.0,0.,24.0,0.,24.0,0.,24.0
1981-08-24 06:53:44.970 ,4,1,0.,24.0,0.,24.0,0.,24.0,0.,24.0
1981-08-24 06:54:08.970 ,4,0,0.,24.0,0.,24.0,0.,24.0,0.,24.0
1981-08-24 06:54:32.970 ,3,1,0.,24.0,0.,24.0,0.,24.0,0.,24.0
1981-08-24 06:54:56.970 ,3,0,0.,24.0,0.,24.0,0.,24.0,0.,24.0
1981-08-24 06:55:20.970 ,2,1,0.,24.0,0.,24.0,0.,24.0,0.,24.0
1981-08-24 06:55:44.970 ,2,0,0.,24.0,0.,24.0,0.,24.0,0.,24.0
1981-08-24 06:56:08.970 ,1,1,0.,24.0,0.,24.0,0.,24.0,0.,24.0
1981-08-24 06:56:32.970 ,1,0,0.,24.0,0.,24.0,0.,24.0,0.,24.0
1981-08-24 06:56:56.970 ,0,1,0.,24.0,0.,24.0,0.,24.0,0.,24.0
1981-08-24 06:57:20.970 ,0,0,0.,24.0,0.,24.0,0.,24.0,0.,24.0
1981-08-24 06:57:44.970 ,0,1,0.,24.0,0.,24.0,0.,24.0,0.,24.0
1981-08-24 06:58:08.970 ,0,0,0.,24.0,0.,24.0,0.,24.0,0.,24.0
1981-08-24 06:58:32.970 ,1,1,0.,24.0,0.,24.0,0.,24.0,0.,24.0
1981-08-24 06:58:56.970 ,1,0,0.,24.0,0.,24.0,0.,24.0,0.,24.0
1981-08-24 06:59:20.970 ,2,1,0.,24.0,0.,24.0,0.,24.0,0.,24.0
1981-08-24 06:59:44.970 ,2,0,0.,24.0,0.,24.0,0.,24.0,0.,24.0
1981-08-24 07:00:08.970 ,3,1,0.,24.0,0.,24.0,0.,24.0,0.,24.0
1981-08-24 07:00:32.970 ,3,0,0.,24.0,0.,24.0,0.,24.0,0.,24.0
1981-08-24 07:00:56.970 ,4,1,0.,24.0,0.,24.0,0.,24.0,0.,24.0
1981-08-24 07:01:20.970 ,4,0,0.,24.0,0.,24.0,0.,24.0,0.,24.0
1981-08-24 07:01:44.970 ,5,1,0.,24.0,0.,24.0,0.,24.0,0.,24.0
1981-08-24 07:02:08.970 ,5,0,0.,24.0,0.,24.0,0.,24.0,0.,24.0
1981-08-24 07:02:32.970 ,6,1,0.,24.0,0.,24.0,0.,24.0,0.,24.0
1981-08-24 07:02:56.970 ,6,0,0.,24.0,0.,24.0,0.,24.0,0.,24.0
1981-08-24 07:03:20.970 ,7,1,0.,24.0,0.,24.0,0.,24.0,0.,24.0
1981-08-24 07:03:44.970 ,7,0,0.,24.0,0.,24.0,0.,24.0,0.,24.0
1981-08-24 07:04:08.970 ,7,1,0.,24.0,0.,24.0,0.,24.0,0.,24.0
1981-08-24 07:04:32.970 ,6,1,0.,24.0,0.,24.0,0.,24.0,0.,24.0
1981-08-24 07:04:56.970 ,5,1,0.,24.0,0.,24.0,0.,24.0,0.,24.0
1981-08-24 07:05:20.970 ,4,1,0.,24.0,0.,24.0,0.,24.0,0.,24.0
1981-08-24 07:05:44.970 ,3,1,0.,24.0,0.,24.0,0.,24.0,0.,24.0
1981-08-24 07:06:08.970 ,2,1,0.,24.0,0.,24.0,0.,24.0,0.,24.0
1981-08-24 07:06:32.970 ,1,1,0.,24.0,0.,24.0,0.,24.0,0.,24.0
1981-08-24 07:06:56.970 ,0,1,0.,24.0,0.,24.0,0.,24.0,0.,24.0
1981-08-24 07:07:20.970 ,0,1,0.,24.0,0.,24.0,0.,24.0,0.,24.0
1981-08-24 07:07:44.970 ,1,1,0.,24.0,0.,24.0,0.,24.0,0.,24.0
1981-08-24 07:08:08.970 ,2,1,0.,24.0,0.,24.0,0.,24.0,0.,24.0
1981-08-24 07:08:32.970 ,3,1,0.,24.0,0.,24.0,0.,24.0,0.,24.0
1981-08-24 07:08:56.970 ,4,1,0.,24.0,0.,24.0,0.,24.0,0.,24.0
1981-08-24 07:09:20.970 ,5,1,0.,24.0,0.,24.0,0.,24.0,0.,24.0
1981-08-24 07:09:44.970 ,6,1,0.,24.0,0.,24.0,0.,24.0,0.,24.0
1981-08-24 07:10:08.970 ,7,1,0.,24.0,0.,24.0,0.,24.0,0.,24.0
1981-08-24 07:10:32.970 ,7,1,0.,24.0,0.,24.0,0.,24.0,0.,24.0
1981-08-24 07:10:56.970 ,0,0,0.,24.0,0.,24.0,0.,24.0,0.,24.0
1981-08-24 07:53:39.570 ,0,0,,0,,0,,0,,0
1981-08-24 07:53:49.170 ,0,0,0.,24.0,0.,24.0,0.,24.0,0.,24.0
1981-08-24 07:54:08.970 ,0,0,0.,24.0,0.,24.0,0.,24.0,0.,24.0
1981-08-24 07:54:32.970 ,0,1,0.,24.0,0.,24.0,0.,24.0,0.,24.0
1981-08-24 07:54:56.970 ,0,0,0.,24.0,0.,24.0,0.,24.0,0.,24.0
1981-08-24 07:55:20.970 ,0,1,0.,24.0,0.,24.0,0.,24.0,0.,24.0
1981-08-24 07:55:44.970 ,0,0,0.,24.0,0.,24.0,0.,24.0,0.,24.0
1981-08-24 07:56:08.970 ,1,1,0.,24.0,0.,24.0,0.,24.0,0.,24.0
1981-08-24 07:56:32.970 ,1,0,0.,24.0,0.,24.0,0.,24.0,0.,24.0
1981-08-24 07:56:56.970 ,2,1,0.,24.0,0.,24.0,0.,24.0,0.,24.0
1981-08-24 07:57:20.970 ,2,0,0.,24.0,0.,24.0,0.,24.0,0.,24.0
1981-08-24 07:57:44.970 ,3,1,0.,24.0,0.,24.0,0.,24.0,0.,24.0
1981-08-24 07:58:08.970 ,3,0,0.,24.0,0.,24.0,0.,24.0,0.,24.0
1981-08-24 07:58:32.970 ,4,1,0.,24.0,0.,24.0,0.,24.0,0.,24.0
1981-08-24 07:58:56.970 ,4,0,0.,24.0,0.,24.0,0.,24.0,0.,24.0
1981-08-24 07:59:20.970 ,5,1,0.,24.0,0.,24.0,0.,24.0,0.,24.0
1981-08-24 07:59:44.970 ,5,0,0.,24.0,0.,24.0,0.,24.0,0.,24.0
1981-08-24 08:00:08.970 ,6,1,0.,24.0,0.,24.0,0.,24.0,0.,24.0
1981-08-24 08:00:32.970 ,6,0,0.,24.0,0.,24.0,0.,24.0,0.,24.0
1981-08-24 08:00:56.970 ,7,1,0.,24.0,0.,24.0,0.,24.0,0.,24.0
1981-08-24 08:01:20.970 ,7,0,0.,24.0,0.,24.0,0.,24.0,0.,24.0
1981-08-24 08:01:44.970 ,7,1,0.,24.0,0.,24.0,0.,24.0,0.,24.0
1981-08-24 08:02:08.970 ,6,1,0.,24.0,0.,24.0,0.,24.0,0.,24.0
1981-08-24 08:02:32.970 ,5,1,0.,24.0,0.,24.0,0.,24.0,0.,24.0
1981-08-24 08:02:56.970 ,4,1,0.,24.0,0.,24.0,0.,24.0,0.,24.0
1981-08-24 08:03:20.970 ,3,1,0.,24.0,0.,24.0,0.,24.0,0.,24.0
1981-08-24 08:03:44.970 ,2,1,0.,24.0,0.,24.0,0.,24.0,0.,24.0
1981-08-24 08:04:56.970 ,0,0,0.,24.0,0.,24.0,0.,24.0,0.,24.0
1981-08-24 08:05:20.970 ,1,1,0.,24.0,0.,24.0,0.,24.0,0.,24.0
1981-08-24 08:05:44.970 ,2,1,0.,24.0,0.,24.0,0.,24.0,0.,24.0
1981-08-24 08:06:08.970 ,3,1,0.,24.0,0.,24.0,0.,24.0,0.,24.0
1981-08-24 08:06:32.970 ,4,1,0.,24.0,0.,24.0,0.,24.0,0.,24.0
1981-08-24 08:06:56.970 ,5,1,0.,24.0,0.,24.0,0.,24.0,0.,24.0
1981-08-24 08:07:20.970 ,6,1,0.,24.0,0.,24.0,0.,24.0,0.,24.0
1981-08-24 08:07:44.970 ,7,1,0.,24.0,0.,24.0,0.,24.0,0.,24.0
1981-08-24 08:08:08.970 ,7,1,0.,24.0,0.,24.0,0.,24.0,0.,24.0
1981-08-24 08:08:32.970 ,7,0,0.,24.0,0.,24.0,0.,24.0,0.,24.0
1981-08-24 08:08:56.970 ,6,1,0.,24.0,0.,24.0,0.,24.0,0.,24.0
1981-08-24 08:09:20.970 ,6,0,0.,24.0,0.,24.0,0.,24.0,0.,24.0
1981-08-24 08:09:44.970 ,5,1,0.,24.0,0.,24.0,0.,24.0,0.,24.0
1981-08-24 08:10:08.970 ,5,0,0.,24.0,0.,24.0,0.,24.0,0.,24.0
1981-08-24 08:10:32.970 ,4,1,0.,24.0,0.,24.0,0.,24.0,0.,24.0
1981-08-24 08:10:56.970 ,4,0,0.,24.0,0.,24.0,0.,24.0,0.,24.0
1981-08-24 08:11:20.970 ,3,1,0.,24.0,0.,24.0,0.,24.0,0.,24.0
1981-08-24 08:11:44.970 ,0,0,0.,24.0,0.,24.0,0.,24.0,0.,24.0
1981-08-24 08:12:02.370 ,0,0,,0,,0,,0,,0
1981-08-24 08:12:08.970 ,2,1,0.,24.0,0.,24.0,0.,24.0,0.,24.0
1981-08-24 08:12:32.970 ,2,0,0.,24.0,0.,24.0,0.,24.0,0.,24.0
1981-08-24 08:12:56.970 ,1,1,0.,24.0,0.,24.0,0.,24.0,0.,24.0
1981-08-24 08:13:20.970 ,1,0,0.,24.0,0.,24.0,0.,24.0,0.,24.0
1981-08-24 08:13:44.970 ,0,1,0.,24.0,0.,24.0,0.,24.0,0.,24.0
1981-08-24 08:14:08.970 ,0,0,0.,24.0,0.,24.0,0.,24.0,0.,24.0
1981-08-24 08:14:32.970 ,0,1,0.,24.0,0.,24.0,0.,24.0,0.,24.0
1981-08-24 08:14:56.970 ,0,0,0.,24.0,0.,24.0,0.,24.0,0.,24.0
1981-08-24 08:15:20.970 ,1,1,0.,24.0,0.,24.0,0.,24.0,0.,24.0
1981-08-24 08:15:44.970 ,1,0,0.,24.0,0.,24.0,0.,24.0,0.,24.0
1981-08-24 08:16:08.970 ,2,1,0.,24.0,0.,24.0,0.,24.0,0.,24.0
1981-08-24 08:16:32.970 ,2,0,0.,24.0,0.,24.0,0.,24.0,0.,24.0
1981-08-24 08:16:56.970 ,3,1,0.,24.0,0.,24.0,0.,24.0,0.,24.0
1981-08-24 08:17:20.970 ,3,0,0.,24.0,0.,24.0,0.,24.0,0.,24.0
1981-08-24 08:17:44.970 ,4,1,0.,24.0,0.,24.0,0.,24.0,0.,24.0
1981-08-24 08:18:08.970 ,4,0,0.,24.0,0.,24.0,0.,24.0,0.,24.0
1981-08-24 08:18:32.970 ,5,1,0.,24.0,0.,24.0,0.,24.0,0.,24.0
1981-08-24 08:18:56.970 ,5,0,0.,24.0,0.,24.0,0.,24.0,0.,24.0
1981-08-24 08:19:20.970 ,6,1,0.,24.0,0.,24.0,0.,24.0,0.,24.0
1981-08-24 08:19:44.970 ,6,0,0.,24.0,0.,24.0,0.,24.0,0.,24.0
1981-08-24 08:20:08.970 ,7,1,0.,24.0,0.,24.0,0.,24.0,0.,24.0
1981-08-24 08:20:32.970 ,7,0,0.,24.0,0.,24.0,0.,24.0,0.,24.0
1981-08-24 08:20:56.970 ,7,1,0.,24.0,0.,24.0,0.,24.0,0.,24.0
1981-08-24 08:21:20.970 ,6,1,0.,24.0,0.,24.0,0.,24.0,0.,24.0
1981-08-24 08:21:44.970 ,5,1,0.,24.0,0.,24.0,0.,24.0,0.,24.0
1981-08-24 08:22:08.970 ,4,1,0.,24.0,0.,24.0,0.,24.0,0.,24.0
1981-08-24 08:22:32.970 ,3,1,0.,24.0,0.,24.0,0.,24.0,0.,24.0
1981-08-24 08:22:56.970 ,2,1,0.,24.0,0.,24.0,0.,24.0,0.,24.0
1981-08-24 08:23:20.970 ,1,1,0.,24.0,0.,24.0,0.,24.0,0.,24.0
1981-08-24 08:23:44.970 ,0,1,0.,24.0,0.,24.0,0.,24.0,0.,24.0
1981-08-24 08:24:08.970 ,0,1,0.,24.0,0.,24.0,0.,24.0,0.,24.0
1981-08-24 08:24:32.970 ,1,1,0.,24.0,0.,24.0,0.,24.0,0.,24.0
1981-08-24 08:24:56.970 ,2,1,0.,24.0,0.,24.0,0.,24.0,0.,24.0
1981-08-24 08:25:20.970 ,3,1,0.,24.0,0.,24.0,0.,24.0,0.,24.0
1981-08-24 08:25:44.970 ,4,1,0.,24.0,0.,24.0,0.,24.0,0.,24.0
1981-08-24 08:26:08.970 ,5,1,0.,24.0,0.,24.0,0.,24.0,0.,24.0
1981-08-24 08:26:32.970 ,6,1,0.,24.0,0.,24.0,0.,24.0,0.,24.0
1981-08-24 08:26:56.970 ,7,1,0.,24.0,0.,24.0,0.,24.0,0.,24.0
1981-08-24 08:27:20.970 ,7,1,0.,24.0,0.,24.0,0.,24.0,0.,24.0
1981-08-24 08:27:44.970 ,7,0,0.,24.0,0.,24.0,0.,24.0,0.,24.0
1981-08-24 08:28:08.970 ,6,1,0.,24.0,0.,24.0,0.,24.0,0.,24.0
1981-08-24 08:28:32.970 ,6,0,0.,24.0,0.,24.0,0.,24.0,0.,24.0
1981-08-24 08:28:56.970 ,5,1,0.,24.0,0.,24.0,0.,24.0,0.,24.0
1981-08-24 08:29:20.970 ,5,0,0.,24.0,0.,24.0,0.,24.0,0.,24.0
1981-08-24 08:29:44.970 ,4,1,0.,24.0,0.,24.0,0.,24.0,0.,24.0
1981-08-24 08:30:08.970 ,4,0,0.,24.0,0.,24.0,0.,24.0,0.,24.0
1981-08-24 08:30:32.970 ,3,1,0.,24.0,0.,24.0,0.,24.0,0.,24.0
1981-08-24 08:30:56.970 ,3,0,0.,24.0,0.,24.0,0.,24.0,0.,24.0
1981-08-24 08:31:20.970 ,0,0,0.,24.0,0.,24.0,0.,24.0,0.,24.0
1981-08-24 08:31:44.970 ,0,0,0.,24.0,0.,24.0,0.,24.0,0.,24.0
1981-08-24 08:32:08.970 ,1,1,0.,24.0,0.,24.0,0.,24.0,0.,24.0
1981-08-24 08:32:32.970 ,0,0,0.,24.0,0.,24.0,0.,24.0,0.,24.0
1981-08-24 08:32:58.770 ,0,1,0.,24.0,0.,24.0,0.,24.0,0.,24.0
1981-08-24 08:33:20.970 ,0,0,0.,24.0,0.,24.0,0.,24.0,0.,24.0
1981-08-24 08:33:44.970 ,0,1,0.,24.0,0.,24.0,0.,24.0,0.,24.0
1981-08-24 08:34:08.970 ,0,0,0.,24.0,0.,24.0,0.,24.0,0.,24.0
1981-08-24 08:34:32.970 ,1,1,0.,24.0,0.,24.0,0.,24.0,0.,24.0
1981-08-24 08:34:56.970 ,0,0,0.,24.0,0.,24.0,0.,24.0,0.,24.0
1981-08-24 08:35:23.370 ,2,1,0.,24.0,0.,24.0,0.,24.0,0.,24.0
1981-08-24 08:35:44.970 ,2,0,0.,24.0,0.,24.0,0.,24.0,0.,24.0
1981-08-24 08:36:08.970 ,3,1,0.,24.0,0.,24.0,0.,24.0,0.,24.0
1981-08-24 08:36:32.970 ,3,0,0.,24.0,0.,24.0,0.,24.0,0.,24.0
1981-08-24 08:36:56.970 ,4,1,0.,24.0,0.,24.0,0.,24.0,0.,24.0
1981-08-24 08:37:20.970 ,4,0,0.,24.0,0.,24.0,0.,24.0,0.,24.0
1981-08-24 08:37:44.970 ,5,1,0.,24.0,0.,24.0,0.,24.0,0.,24.0
1981-08-24 08:38:08.970 ,5,0,,0,,0,,0,,0
1981-08-24 08:38:32.970 ,6,1,0.,24.0,0.,24.0,0.,24.0,0.,24.0
1981-08-24 08:38:56.970 ,6,0,0.,24.0,0.,24.0,0.,24.0,0.,24.0
1981-08-24 08:39:20.970 ,7,1,0.,24.0,0.,24.0,0.,24.0,0.,24.0
1981-08-24 08:39:44.970 ,0,0,0.,24.0,0.,24.0,0.,24.0,0.,24.0
1981-08-24 08:46:41.970 ,0,0,0.,24.0,0.,24.0,0.,24.0,0.,24.0
1981-08-24 08:46:56.970 ,0,0,,0,,0,,0,,0
1981-08-24 08:47:20.970 ,6,1,0.,24.0,0.,24.0,0.,24.0,0.,24.0
1981-08-24 08:47:44.970 ,6,0,0.,24.0,0.,24.0,0.,24.0,0.,24.0
1981-08-24 08:48:08.970 ,5,1,0.,24.0,0.,24.0,0.,24.0,0.,24.0
1981-08-24 08:48:32.970 ,5,0,0.,24.0,0.,24.0,0.,24.0,0.,24.0
1981-08-24 08:48:56.970 ,4,1,0.,24.0,0.,24.0,0.,24.0,0.,24.0
1981-08-24 08:49:20.970 ,4,0,0.,24.0,0.,24.0,0.,24.0,0.,24.0
1981-08-24 08:49:44.970 ,3,1,0.,24.0,0.,24.0,0.,24.0,0.,24.0
1981-08-24 08:50:08.970 ,3,0,0.,24.0,0.,24.0,0.,24.0,0.,24.0
1981-08-24 08:50:32.960 ,2,1,0.,24.0,0.,24.0,0.,24.0,0.,24.0
1981-08-24 08:50:56.960 ,2,0,0.,24.0,0.,24.0,0.,24.0,0.,24.0
1981-08-24 08:51:20.960 ,1,1,0.,24.0,0.,24.0,0.,24.0,0.,24.0
1981-08-24 08:51:44.960 ,1,0,0.,24.0,0.,24.0,0.,24.0,0.,24.0
1981-08-24 08:52:08.960 ,0,1,0.,24.0,0.,24.0,0.,24.0,0.,24.0
1981-08-24 08:52:32.960 ,0,0,0.,24.0,0.,24.0,0.,24.0,0.,24.0
1981-08-24 08:52:56.960 ,0,1,0.,24.0,0.,24.0,0.,24.0,0.,24.0
1981-08-24 08:53:20.960 ,0,0,0.,24.0,0.,24.0,0.,24.0,0.,24.0
1981-08-24 08:53:44.960 ,1,1,0.,24.0,0.,24.0,0.,24.0,0.,24.0
1981-08-24 08:54:08.960 ,1,0,0.,24.0,0.,24.0,0.,24.0,0.,24.0
1981-08-24 08:54:32.960 ,2,1,0.,24.0,0.,24.0,0.,24.0,0.,24.0
1981-08-24 08:54:56.960 ,2,0,0.,24.0,0.,24.0,0.,24.0,0.,24.0
1981-08-24 08:55:20.960 ,3,1,0.,24.0,0.,24.0,0.,24.0,0.,24.0
1981-08-24 08:55:44.960 ,3,0,0.,24.0,0.,24.0,0.,24.0,0.,24.0
1981-08-24 08:56:08.960 ,4,1,0.,24.0,0.,24.0,0.,24.0,0.,24.0
1981-08-24 08:56:32.960 ,0,0,,0,,0,,0,,0
